星链-31289 (STARLINK-31289 )

导读

STARLINK-31289是美国太空探索技术公司(SpaceX)星链星座的卫星成员,于美国东部时间2024年3月4日发射入轨,属于星链互联网卫星组网计划的一部分,旨在为全球提供高速低延迟宽带互联网服务,尤其覆盖偏远、网络基础设施薄弱地区,推动全球卫星互联网的覆盖建设。

基本信息
目录编号:
59173
目录名称:
STARLINK-31289
国际标识:
2024-044X
轨道中心:
EARTH
卫星名称:
星链-31289
卫星全名:
星链-31289 (STARLINK-31289 )
卫星状态:
在轨 (已飞行836 天)
发射日期:
2024-03-04 UTC
国别 :
美国 (US)
星等 :
--
轨道信息
数据来源 国际轨道数据 AOE轨道数据
星历时间 2026-06-17T08:02:17+0800
1天前
查看轨道信息
2026-06-17T08:00:00+0800
1天前
查看轨道信息
半长轴 6861.199km 6861.203km
偏心率 0.0001409 0.000126
轨道倾角 43.001° 43.001°
近地点辐角 268.641° 251.219°
升交点赤经 266.202° 266.212°
平近点角 91.428° 100.123°
近地点 482.095km 482.201km
远地点 484.029km 483.931km
周期 94.267分钟 94.267分钟
每日圈数 15.275758 15.275744
详细信息
固有亮度:
5
最大亮度:
0.3
卫星平台:
Starlink v2.0 mini
覆盖范围:
全球
运营商:
太空探索技术公司
运营商所在国:
美国
制造商(研发单位):
太空探索技术公司
制造商所在国:
美国
使用方式:
暂无
卫星简介
星链(Starlink)计划是由太空探索技术公司(SpaceX)提出的一个巨型低轨卫星互联网星座项目,计划在2019年至2024年间在太空搭建由约1.2万颗卫星组成的“星链”网络,其中1584颗将部署在地球上空550千米处的近地轨道,并从2020年开始工作。该卫星仍在工作。
2D轨道图
3D轨道图
轨道高度分析图
轨道倾角分析图
轨道综合分析图
查看轨道综合分析图